Flag for Japan Weather past 2 weeks in Nagasaki, Japan

Now
76 °F

Mild.


Feels Like: 78 °F
Forecast: 74 / 88 °F
Wind: 2 mph from East

Location: Nagasaki

Current Time: Jul 29, 2014 at 2:52:38 AM

Latest Report: Jul 29, 2014 at 2:00 AM


Visibility: N/A

Pressure: 29.79 "Hg

Humidity: 65%

Dew point: 63 °F

Location of NagasakiLocation

Historic Weather in Nagasaki — Graph

°F

Nagasaki temperature yesterday

Maximum temperature yesterday: 87 °F (at 12:00 PM)
Minimum temperature yesterday: 75 °F (at 5:00 AM)
Average temperature yesterday: 81 °F

Past Weeks' High & Low Weather Summary

 TemperatureHumidityPressure
High91 °F (Jul 24, 2:00 PM)95% (Jul 14, 2:00 AM)29.98 "Hg (Jul 14, 2:00 AM)
Low73 °F (Jul 14, 10:00 PM)46% (Jul 28, 11:00 AM)29.74 "Hg (Jul 14, 1:00 AM)
Average81 °F81%29.86 "Hg
* Reported Jul 14 1:00 AM — Jul 29 1:00 AM, Nagasaki, Weather by CustomWeather, © 2014

Note: Actual official high and low records may vary slightly from our data, if they occured in-between our weather recording intervals... More about our weather records

Advertising

Nagasaki weather history for previous 24 hours

 ConditionsComfort  
Time TempWeatherWind HumidityBarometerVisibility
1:00 AM
Jul 29
77 °FMild.1 mph63%29.78 "HgN/A
12:00 AM76 °FMild.2 mph63%29.79 "HgN/A
11:00 PM
Jul 28
78 °FWarm.1 mph53%29.79 "HgN/A
10:00 PM79 °FWarm.1 mph64%29.78 "HgN/A
9:00 PM79 °FPassing clouds.1 mph67%29.77 "Hg16 mi
8:00 PM81 °FWarm.2 mph59%29.75 "HgN/A
7:00 PM82 °FWarm.3 mph57%29.75 "HgN/A
6:00 PM83 °FPartly sunny.6 mph53%29.75 "Hg12 mi
5:00 PM84 °FWarm.6 mph53%29.76 "HgN/A
4:00 PM85 °FWarm.6 mph51%29.75 "HgN/A
3:00 PM87 °FOvercast.8 mph52%29.76 "Hg16 mi
2:00 PM86 °FWarm.6 mph50%29.76 "HgN/A
1:00 PM86 °FWarm.8 mph52%29.78 "HgN/A
12:00 PM87 °FPartly sunny.7 mph52%29.78 "Hg16 mi
11:00 AM85 °FWarm.3 mph46%29.79 "HgN/A
10:00 AM83 °FWarm.5 mph51%29.80 "HgN/A
9:00 AM81 °FOvercast.6 mph58%29.81 "Hg16 mi
8:00 AM78 °FWarm.5 mph65%29.81 "HgN/A
7:00 AM76 °FMild.3 mph76%29.80 "HgN/A
6:00 AM75 °FOvercast.5 mph79%29.80 "Hg16 mi
5:00 AM75 °FMild.2 mph77%29.79 "HgN/A
4:00 AM76 °FMild.3 mph76%29.79 "HgN/A
3:00 AM76 °FOvercast.2 mph73%29.79 "Hg16 mi
2:00 AM78 °FWarm.3 mph74%29.79 "HgN/A
Weather by CustomWeather, © 2014

See weather overviewHow to use our weather pages